Back to catalog

COSMOS 2190

AliveMilitaryLEO
NORAD 21979·PAYLOAD·🇷🇺 Russia

Launched Jun 3, 1992 from Plesetsk Cosmodrome

Loading…

Next Passes (next 24 hours)

TLE

FreshSource: Space-Track

Epoch: Sep 14, 2026, 14:21 UTC

1 21979U 92030D   26257.59805824 -.00000017  00000-0 -64281-5 0  9991
2 21979  74.0000  97.2153 0031854 330.9375  52.6885 12.52287258567148

Track COSMOS 2190 in real time with AllMySat

Download on the App Store